[[{"header":{"parameterUnit":"m.s-1","parameterCategory":1,"la1":30.2991,"la2":30.254,"lo1":-89.0895,"lo2":-89.0444,"dy":0.0017,"dx":0.0017,"nx":28,"ny":28,"refTime":"2023-08-05T21:00:00:Z","depth":0,"parameterNumber":2,"parameterNumberName":"U-component_of_WINDS"},"data":[0,0,0,0,0,0,0,0,0,0,0,0,0,0,0,0,0,0,0,0,0,0,0,0,0,0,0,0,0,0,0,0,0,0,0,0,0,0,0,0,0,0,0,0,0,0,0,0,0,0,0,0,0,0,0,0,0,0,3.3949,3.395,0,3.4038,3.4039,3.404,3.4056,3.4055,3.4055,3.4054,3.4146,3.4149,3.4152,0,0,0,0,0,0,0,0,0,0,0,0,0,3.3795,3.3798,3.3949,3.395,3.3951,3.4038,3.4039,3.404,3.4056,3.4055,3.4054,3.4054,3.4145,3.4148,3.4152,0,0,0,0,0,0,0,0,0,0,0,0,0,3.3871,3.3799,3.3949,3.3969,3.3972,3.4037,3.4039,3.404,3.4056,3.4055,3.4054,3.4053,3.4143,3.4148,3.4153,3.4203,0,0,3.4167,3.4169,0,0,0,0,0,0,0,0,3.3866,3.3876,3.3965,3.3968,3.3971,3.4035,3.4018,3.4095,3.4057,3.4024,3.4054,3.4053,3.411,3.4117,3.4136,3.4208,3.4211,3.4167,3.417,3.4172,3.4173,0,0,0,0,0,0,0,3.3861,3.3873,3.3984,3.3967,3.397,3.3975,3.3985,3.4033,3.4072,3.4027,3.4029,3.4039,3.4111,3.4132,3.4138,3.4213,3.4167,3.4171,3.4174,3.4176,3.4333,3.4334,0,0,0,0,0,0,3.3852,3.3868,3.3981,3.3987,3.3915,3.3979,3.3989,3.4015,3.4072,3.4079,3.404,3.4039,3.4124,3.4133,3.4142,3.4206,3.4172,3.4176,3.4179,3.4331,3.4333,3.4334,0,0,0,0,0,0,3.3849,3.3862,3.3978,3.3928,3.3943,3.3983,3.4012,3.4018,3.4038,3.4081,3.4088,3.4053,3.4124,3.4135,3.4188,3.4209,3.4179,3.4183,3.433,3.4332,3.4334,3.4334,0,0,0,0,0,0,3.3844,3.3861,3.388,3.3928,3.3946,3.4022,3.4013,3.402,3.4046,3.4046,3.4096,3.4103,3.4124,3.4181,3.4193,3.4215,3.4186,3.4328,3.4331,3.4333,3.4332,3.4336,3.4339,0,0,0,0,0,3.3839,3.3876,3.388,3.3894,3.397,3.4023,3.4033,3.4056,3.4048,3.4068,3.4096,3.4101,3.4205,3.4186,3.42,3.4224,3.4327,3.433,3.4333,3.4331,3.4335,3.4339,0,0,0,0,0,0,3.3828,3.3882,3.3888,3.3942,3.3978,3.4026,3.4051,3.406,3.4099,3.4097,3.4124,3.4135,3.4187,3.4211,3.4189,3.4277,3.4266,3.4271,3.4259,3.4264,3.4267,3.426,3.419,0,0,0,0,0,3.3832,3.387,3.3916,3.3959,3.3977,3.4011,3.4035,3.405,3.4088,3.4103,3.4135,3.4172,3.4214,3.424,3.428,3.4336,3.4348,3.436,3.4363,3.4365,3.437,3.4403,3.4409,3.4344,3.4344,3.4344,0,0,3.3841,3.3875,3.3898,3.3958,3.3988,3.4027,3.4024,3.4065,3.4095,3.411,3.4162,3.4187,3.423,3.4286,3.4311,3.4307,3.4391,3.4369,3.4371,3.4374,3.4407,3.4413,3.4418,3.4347,3.4346,3.4346,0,0,3.3877,3.3906,3.3946,3.3977,3.4021,3.4044,3.4054,3.4101,3.4118,3.4171,3.4183,3.422,3.429,3.4321,3.4346,3.4397,3.4404,3.4409,3.4426,3.4458,3.4463,3.4467,3.4486,3.4493,3.4414,3.4414,3.4414,0,3.3882,3.3942,3.3966,3.4008,3.4035,3.405,3.4092,3.412,3.4175,3.4194,3.4188,3.4278,3.4308,3.4372,3.4384,3.4404,3.4416,3.4403,3.446,3.4465,3.447,3.4488,3.4495,3.4414,3.4414,3.4414,3.4414,0,3.3946,3.3988,3.4015,3.4069,3.4099,3.414,3.4172,3.4199,3.4212,3.4236,3.4291,3.4328,3.4377,3.4393,3.4406,3.4459,3.4455,3.4454,3.4443,3.4476,3.4494,3.4501,3.4415,3.4414,3.4414,3.4414,0,0,3.3977,3.4045,3.4055,3.408,3.4132,3.4165,3.4208,3.4256,3.428,3.4318,3.4356,3.4416,3.4416,3.4444,3.4461,3.4489,3.4528,3.4485,3.4486,3.4492,3.459,3.4591,3.4598,3.4533,3.4535,3.4536,3.4587,0,3.402,3.4096,3.412,3.4185,3.4224,3.4241,3.4278,3.4315,3.4338,3.4376,3.4403,3.4445,3.4442,3.4459,3.4488,3.4517,3.4548,3.4514,3.4569,3.4571,3.4557,3.4608,3.4608,3.4654,3.4594,3.4595,3.4596,0,3.4079,3.412,3.4188,3.4236,3.4254,3.4287,3.4334,3.4369,3.4412,3.4427,3.446,3.4475,3.4522,3.4509,3.4574,3.455,3.4575,3.4593,3.4595,3.4601,3.4585,3.4615,3.4669,3.4676,3.4607,3.4606,3.4605,0,3.4096,3.4167,3.4218,3.4239,3.4296,3.432,3.4345,3.4386,3.4414,3.4455,3.4474,3.452,3.4546,3.4582,3.4609,3.4597,3.4673,3.4661,3.4688,3.4687,3.4702,3.4701,3.4761,3.4718,3.4718,3.4718,3.4717,0,3.4141,3.4182,3.4226,3.4257,3.4304,3.4332,3.4379,3.4405,3.4442,3.4479,3.4496,3.4531,3.4565,3.4605,3.4627,3.4678,3.4689,3.4704,3.4709,3.4703,3.4701,3.4719,3.4716,3.4719,3.4719,3.4719,3.4718,0,3.4167,3.4198,3.4254,3.4305,3.4319,3.4351,3.4395,3.4426,3.4452,3.4499,3.4511,3.4551,3.4599,3.463,3.4691,3.4706,3.4762,3.4767,3.4748,3.475,3.4775,3.4773,3.4849,3.4861,3.4809,3.481,3.481,0,3.4194,3.4226,3.4281,3.4307,3.4332,3.4374,3.4403,3.4433,3.4462,3.4514,3.454,3.4588,3.4629,3.4705,3.474,3.4787,3.4792,3.4816,3.48,3.4792,3.4794,3.4791,3.4795,3.4819,3.4819,3.4819,3.482,0,3.4239,3.4253,3.4294,3.4341,3.4375,3.4413,3.4451,3.4472,3.4508,3.4541,3.459,3.4622,3.4684,3.4733,3.4784,3.4811,3.4822,3.4825,3.4834,3.4827,3.4815,3.4823,3.4755,3.4823,3.4822,3.4822,3.4822,3.4822,3.4267,3.4297,3.434,3.4386,3.4418,3.4454,3.4486,3.4516,3.4557,3.4611,3.4626,3.4677,3.4721,3.479,3.4818,3.4859,3.4857,3.4869,3.4872,3.4875,3.4876,3.4808,3.4869,3.4869,3.4869,3.4869,3.4869,0,3.4313,3.4342,3.4384,3.4437,3.4473,3.4481,3.4524,3.4554,3.4599,3.4639,3.4679,3.4736,3.4784,3.4823,3.4873,3.4899,3.4905,3.4911,3.4909,3.4916,3.4875,3.4862,3.4905,3.4905,3.4905,3.4905,3.4905,3.4905,3.4341,3.4393,3.4413,3.4481,3.451,3.4561,3.4585,3.4619,3.4651,3.4714,3.4754,3.4779,3.4819,3.4872,3.4917,3.4927,3.4945,3.495,3.4961,3.4922,3.4918,3.4914,3.4903,3.4953,3.4953,3.4999,3.4999,3.4999]},{"header":{"parameterUnit":"m.s-1","parameterCategory":1,"la1":30.2991,"la2":30.254,"lo1":-89.0895,"lo2":-89.0444,"dy":0.0017,"dx":0.0017,"nx":28,"ny":28,"refTime":"2023-08-05T21:00:00:Z","depth":0,"parameterNumber":3,"parameterNumberName":"V-component_of_WINDS"},"data":[0,0,0,0,0,0,0,0,0,0,0,0,0,0,0,0,0,0,0,0,0,0,0,0,0,0,0,0,0,0,0,0,0,0,0,0,0,0,0,0,0,0,0,0,0,0,0,0,0,0,0,0,0,0,0,0,0,0,-0.5482,-0.5482,0,-0.5528,-0.5528,-0.5529,-0.554,-0.554,-0.554,-0.554,-0.5588,-0.559,-0.5592,0,0,0,0,0,0,0,0,0,0,0,0,0,-0.5406,-0.5407,-0.5481,-0.5482,-0.5483,-0.5528,-0.5528,-0.5529,-0.554,-0.554,-0.554,-0.5539,-0.5588,-0.559,-0.5592,0,0,0,0,0,0,0,0,0,0,0,0,0,-0.5444,-0.5407,-0.5481,-0.5494,-0.5495,-0.5528,-0.5528,-0.5529,-0.5541,-0.554,-0.554,-0.5539,-0.5587,-0.559,-0.5592,-0.5616,0,0,-0.5599,-0.56,0,0,0,0,0,0,0,0,-0.5442,-0.5447,-0.5491,-0.5493,-0.5495,-0.5528,-0.552,-0.5558,-0.5541,-0.5523,-0.554,-0.5539,-0.5569,-0.5573,-0.5582,-0.5618,-0.562,-0.5599,-0.5601,-0.5602,-0.5603,0,0,0,0,0,0,0,-0.5439,-0.5445,-0.55,-0.5492,-0.5494,-0.5498,-0.5503,-0.5527,-0.5548,-0.5525,-0.5526,-0.5531,-0.557,-0.558,-0.5584,-0.5621,-0.5599,-0.5601,-0.5603,-0.5604,-0.568,-0.5681,0,0,0,0,0,0,-0.5434,-0.5443,-0.5498,-0.5501,-0.5467,-0.55,-0.5505,-0.5518,-0.5548,-0.5552,-0.5531,-0.5531,-0.5576,-0.5581,-0.5585,-0.5616,-0.5602,-0.5604,-0.5605,-0.568,-0.568,-0.5681,0,0,0,0,0,0,-0.5432,-0.5439,-0.5497,-0.5472,-0.548,-0.5501,-0.5515,-0.5519,-0.5529,-0.5553,-0.5557,-0.5538,-0.5576,-0.5582,-0.5608,-0.5618,-0.5605,-0.5607,-0.5679,-0.568,-0.5681,-0.5678,0,0,0,0,0,0,-0.543,-0.5438,-0.5447,-0.5472,-0.5481,-0.5518,-0.5516,-0.552,-0.5533,-0.5534,-0.556,-0.5564,-0.5576,-0.5605,-0.5611,-0.5621,-0.5609,-0.5678,-0.5679,-0.568,-0.5677,-0.5679,-0.568,0,0,0,0,0,-0.5427,-0.5444,-0.5447,-0.5454,-0.5492,-0.5518,-0.5524,-0.5537,-0.5534,-0.5543,-0.5559,-0.5563,-0.5616,-0.5607,-0.5614,-0.5626,-0.5678,-0.5679,-0.568,-0.5677,-0.5678,-0.568,0,0,0,0,0,0,-0.5419,-0.5448,-0.5451,-0.5476,-0.5495,-0.552,-0.5532,-0.5538,-0.5558,-0.5558,-0.5574,-0.5579,-0.5605,-0.5618,-0.5608,-0.5651,-0.5647,-0.565,-0.5642,-0.5644,-0.5645,-0.5642,-0.5611,0,0,0,0,0,-0.542,-0.5439,-0.5463,-0.5483,-0.5492,-0.551,-0.5522,-0.5531,-0.5551,-0.5559,-0.5576,-0.5596,-0.5618,-0.5631,-0.5652,-0.5679,-0.5686,-0.569,-0.5692,-0.5693,-0.5695,-0.5712,-0.5715,-0.5686,-0.5686,-0.5685,0,0,-0.5423,-0.5441,-0.5451,-0.5482,-0.5497,-0.5517,-0.5517,-0.5537,-0.5553,-0.5562,-0.5589,-0.5602,-0.5625,-0.5653,-0.5666,-0.5664,-0.5705,-0.5694,-0.5695,-0.5697,-0.5714,-0.5717,-0.5719,-0.5686,-0.5686,-0.5686,0,0,-0.5438,-0.5452,-0.5471,-0.5487,-0.551,-0.5523,-0.5527,-0.5552,-0.5562,-0.5588,-0.5596,-0.5615,-0.5651,-0.5668,-0.5681,-0.5704,-0.5709,-0.571,-0.5717,-0.5733,-0.5736,-0.5738,-0.5748,-0.5751,-0.5712,-0.5712,-0.5712,0,-0.5438,-0.5467,-0.5481,-0.5501,-0.5515,-0.5525,-0.5545,-0.5559,-0.5588,-0.5598,-0.5596,-0.5642,-0.5659,-0.5691,-0.5697,-0.5706,-0.5713,-0.5707,-0.5734,-0.5737,-0.5739,-0.5748,-0.5752,-0.5712,-0.5712,-0.5712,-0.5712,0,-0.5467,-0.5488,-0.5501,-0.5528,-0.5544,-0.5564,-0.5581,-0.5595,-0.5603,-0.5616,-0.5644,-0.5664,-0.569,-0.5698,-0.5705,-0.5732,-0.573,-0.5731,-0.5727,-0.5741,-0.5751,-0.5754,-0.5712,-0.5712,-0.5712,-0.5712,0,0,-0.5478,-0.5514,-0.5518,-0.5532,-0.5559,-0.5575,-0.5597,-0.5622,-0.5634,-0.5654,-0.5673,-0.5704,-0.5705,-0.572,-0.573,-0.5745,-0.5763,-0.5744,-0.5745,-0.5748,-0.5796,-0.5796,-0.58,-0.5767,-0.5768,-0.5768,-0.5794,0,-0.5497,-0.5535,-0.5548,-0.558,-0.56,-0.561,-0.5629,-0.5648,-0.5661,-0.5681,-0.5696,-0.5718,-0.5717,-0.5727,-0.5741,-0.5758,-0.5773,-0.5756,-0.5787,-0.5788,-0.5781,-0.5804,-0.5804,-0.5827,-0.5798,-0.5798,-0.5799,0,-0.5524,-0.5545,-0.5579,-0.5605,-0.5614,-0.563,-0.5655,-0.5673,-0.5696,-0.5705,-0.5722,-0.5731,-0.5755,-0.575,-0.5784,-0.5772,-0.5786,-0.5796,-0.5797,-0.5801,-0.5795,-0.581,-0.5835,-0.5839,-0.5804,-0.5804,-0.5803,0,-0.553,-0.5566,-0.5592,-0.5603,-0.5633,-0.5645,-0.5659,-0.5681,-0.5696,-0.5718,-0.5728,-0.5752,-0.5766,-0.5785,-0.5801,-0.5795,-0.5835,-0.583,-0.5844,-0.5844,-0.5853,-0.5852,-0.5881,-0.5859,-0.5859,-0.5859,-0.5859,0,-0.5551,-0.5571,-0.5595,-0.5611,-0.5635,-0.565,-0.5674,-0.5688,-0.5708,-0.5728,-0.5738,-0.5756,-0.5775,-0.5797,-0.5809,-0.5837,-0.5843,-0.5852,-0.5855,-0.5851,-0.5851,-0.5861,-0.586,-0.586,-0.586,-0.586,-0.5859,0,-0.5562,-0.5578,-0.5607,-0.5634,-0.5641,-0.5658,-0.5681,-0.5697,-0.5711,-0.5736,-0.5743,-0.5765,-0.5791,-0.5809,-0.5841,-0.585,-0.5881,-0.5883,-0.5873,-0.5875,-0.5888,-0.5887,-0.5926,-0.5933,-0.5905,-0.5905,-0.5905,0,-0.5574,-0.559,-0.5619,-0.5633,-0.5646,-0.5668,-0.5683,-0.57,-0.5715,-0.5743,-0.5757,-0.5783,-0.5805,-0.5846,-0.5866,-0.5892,-0.5896,-0.5908,-0.59,-0.5896,-0.5898,-0.5897,-0.59,-0.5909,-0.5909,-0.5909,-0.591,0,-0.5595,-0.5603,-0.5624,-0.5649,-0.5667,-0.5687,-0.5707,-0.5718,-0.5738,-0.5756,-0.5782,-0.5799,-0.5833,-0.586,-0.5888,-0.5903,-0.5911,-0.5912,-0.5917,-0.5914,-0.5908,-0.5913,-0.5878,-0.5911,-0.5911,-0.5911,-0.5911,-0.5911,-0.5608,-0.5623,-0.5647,-0.567,-0.5688,-0.5707,-0.5724,-0.574,-0.5762,-0.5791,-0.58,-0.5828,-0.5852,-0.589,-0.5906,-0.5929,-0.5928,-0.5935,-0.5936,-0.5938,-0.5939,-0.5903,-0.5934,-0.5934,-0.5934,-0.5934,-0.5934,0,-0.563,-0.5646,-0.5668,-0.5696,-0.5716,-0.572,-0.5744,-0.576,-0.5784,-0.5805,-0.5827,-0.5859,-0.5885,-0.5907,-0.5935,-0.5949,-0.5953,-0.5956,-0.5956,-0.5959,-0.5937,-0.5931,-0.5952,-0.5952,-0.5952,-0.5952,-0.5952,-0.5952,-0.5644,-0.5671,-0.5682,-0.5718,-0.5734,-0.5761,-0.5775,-0.5793,-0.5811,-0.5845,-0.5867,-0.5881,-0.5903,-0.5933,-0.5958,-0.5964,-0.5974,-0.5977,-0.5983,-0.5963,-0.5961,-0.5959,-0.5953,-0.5978,-0.5978,-0.6004,-0.6004,-0.6004]}]]